Regional Weather Roundup
Issued by NWS

Home | Current Version | Previous Version | Text Only | Print | Product List | Glossary Off
Versions: 1 2 3 4 5 6 7 8 9 10 11 12 13 14 15 16 17 18 19 20 21 22 23 24 25 26 27 28 29 30 31 32 33 34 35 36 37 38 39 40 41 42 43 44 45 46 47 48 49 50

000
ASUS43 KMPX 250301
RWRMN
WEATHER ROUNDUP FOR MINNESOTA
NATIONAL WEATHER SERVICE TWIN CITIES/CHANHASSEN MN
1000 PM CDT SAT SEP 24 2016


NOTE: "FAIR" INDICATES FEW OR NO CLOUDS BELOW 12,000 FEET WITH NO
SIGNIFICANT WEATHER AND/OR OBSTRUCTIONS TO VISIBILITY. N/A MEANS
CURRENT SKY AND/OR WEATHER CONDITIONS ARE NOT AVAILABLE.

MNZ060>063-068>070-250400-
   Twin Cities Metro

CITY           SKY/WX    TMP DP  RH WIND       PRES   REMARKS
TWIN CITIES    CLOUDY    68  62  81 SE16      29.98F
ST PAUL        CLOUDY    67  63  87 SE16G24   29.98F
CRYSTAL        CLOUDY    68  61  78 SE10G24   29.95F
BLAINE         CLOUDY    70  66  88 SE13G18   29.97F
LAKEVILLE      CLOUDY    66  66 100 SE10      29.98F
EDEN PRAIRIE   LGT RAIN  69  63  81 SE15G23   29.95F
LAKEVILLE      CLOUDY    66  66 100 SE10      29.98F
SOUTH ST PAUL  CLOUDY    67  64  89 SE9G17    29.98F
LAKE ELMO      CLOUDY    66  63  88 SE13      30.01F
$$
MNZ001>005-007-008-013>017-022>024-027-028-250400-
   Northwest Minnesota

CITY           SKY/WX    TMP DP  RH WIND       PRES   REMARKS
BEMIDJI        CLOUDY    64  62  91 SE16      29.88F
HALLOCK        CLOUDY    68  64  88 SE16      29.76F
ROSEAU         CLOUDY    64  61  88 SE13G23   29.85F
WARROAD        CLOUDY    64  61  88 SE15      29.87F
THIEF RVR FALL CLOUDY    65  63  93 SE16      29.80F
FOSSTON        MOCLDY    64  63  94 SE9       29.84F FOG
DETROIT LAKES  CLOUDY    66  64  94 SE10      29.84F
MOORHEAD       CLOUDY    68  66  94 S13G18    29.81R
PARK RAPIDS    CLOUDY    66  62  87 SE13      29.88F
MAHNOMEN       CLOUDY    66  64  92 SE13      29.82F
$$
MNZ006-009>011-018-025>026-250400-
   North Central Minnesota

CITY           SKY/WX    TMP DP  RH WIND       PRES   REMARKS
BAUDETTE       LGT RAIN  63  61  93 SE16      29.92F
FLAG ISLAND    CLOUDY    63  61  94 SE12      29.88F
INTL FALLS     CLOUDY    62  58  86 SE12      29.97F
WASKISH        CLOUDY    64  61  88 SE10G16   29.90F
BIG FORK       LGT RAIN  63  61  94 SE7G18    29.97F
LONGVILLE      CLOUDY    64  63  94 SE7       29.92F
GRAND RAPIDS   CLOUDY    63  60  90 SE12G18   29.99F
ORR            CLOUDY    61  55  82 SE7       29.98F
COOK           CLOUDY    61  57  88 SE7       30.02S
WALKER         CLOUDY    64  62  91 SE7       29.89F
$$
MNZ012-019>021-037-250400-
   Northeast Minnesota

CITY           SKY/WX    TMP DP  RH WIND       PRES   REMARKS
DULUTH         CLOUDY    62  59  90 SE15      30.04F
ELY            CLOUDY    61  55  82 SE10G17   30.04F
HIBBING        CLOUDY    61  58  90 SE13      30.00F
EVELETH        CLOUDY    63  58  86 SE7       30.03F
DULUTH HARBOR  CLOUDY    61  57  88 NE15      30.04F
TWO HARBORS    CLOUDY    63  57  82 NE9       30.05F
SILVER BAY     CLOUDY    61  55  82 NE8       30.06F
GRAND MARAIS     N/A     62  55  77 NE8       30.11F
G MARAIS ARPRT CLOUDY    55  48  76 E9        30.15F
$$
MNZ029>031-032-039>041-046>048-054>057-064-250400-
   West Central Minnesota

CITY           SKY/WX    TMP DP  RH WIND       PRES   REMARKS
FERGUS FALLS   CLOUDY    66  66 100 S13       29.86S
WHEATON        MOCLDY    68  66  94 S12       29.87S
MORRIS         CLOUDY    66  66 100 SE14      29.87S
ALEXANDRIA     CLOUDY    67  66  97 SE13      29.92R
ELBOW LAKE     MOCLDY    65  65  97 SE13      29.87S
GLENWOOD       RAIN      66  64  94 SE13G18   29.92R
APPLETON       PTCLDY    68  64  88 SE9       29.88S
BENSON         CLOUDY    66  63  88 S8        29.90F
MADISON          N/A     70  70 100 SE8       29.88S
WILLMAR        CLOUDY    66  66 100 SE5       29.94S
$$
MNZ033>034-036-042>043-049>051-058-059-250400-
   Central Minnesota

CITY           SKY/WX    TMP DP  RH WIND       PRES   REMARKS
ST CLOUD       CLOUDY    66  65  96 SE9       29.95R
SAUK CENTRE    HVY RAIN  66  65  98 SE9       29.93R
PAYNESVILLE    LGT RAIN  67  67 100 SE8       29.95R
AITKIN         MIX PCPN  66  61  82 SE12G17   29.95F
PINE RIVER     CLOUDY    64  64 100 SE9       29.94F
BRAINERD       CLOUDY    64  63  96 SE13      29.94F FOG
STAPLES        CLOUDY    64  63  94 SE6       29.90F FOG
LONG PRAIRIE   RAIN      64  64 100 SE10G24   29.93R
LITTLE FALLS   CLOUDY    64  63  94 SE13      29.96R
LITCHFIELD     CLOUDY    68  66  94 SE14      29.93F
BUFFALO        CLOUDY    66  63  87 E8        29.96F
MAPLE LAKE     LGT RAIN  67  65  94 SE8       29.95F
HUTCHINSON     CLOUDY    68  66  95 E12       29.95S
$$
MNZ037-044-045-052-053-250400-
   East Central Minnesota

CITY           SKY/WX    TMP DP  RH WIND       PRES   REMARKS
PRINCETON      CLOUDY    68  64  88 SE12      29.97R
MORA           CLOUDY    63  61  94 SE8       30.00F
CAMBRIDGE      CLOUDY    68  61  77 SE9       29.97F
MOOSE LAKE     CLOUDY    64  59  82 S3        30.00F
HINCKLEY       CLOUDY    64  63  94 E8        30.01F
CLOQUET        CLOUDY    61  57  88 SE6       30.04F
MCGREGOR       CLOUDY    63  61  94 SE9G18    29.98F
$$
MNZ071>073-080-081-089-090-097-098-250400-
   Southwest Minnesota

CITY           SKY/WX    TMP DP  RH WIND       PRES   REMARKS
MONTEVIDEO     CLOUDY    68  68 100 S8        29.91F
GRANITE FALLS  HVY RAIN  69  68  96 E8        29.91F
CANBY          CLOUDY    68  66  94 SE9       29.89F
MARSHALL       MOCLDY    67  66  97 SE7       29.90F
REDWOOD FALLS  CLOUDY    68  67  96 SE3       29.92S
OLIVIA         CLOUDY    68  64  88 E7        29.92S
PIPESTONE        N/A     70  66  88 S8        29.92S
WINDOM         CLOUDY    70  66  88 S7        29.94S
WORTHINGTON    CLOUDY    68  66  93 S8        29.95S
JACKSON        CLOUDY    68  64  88 S8        29.96S
TRACY          MOCLDY    68  68 100 SE6       29.92S
$$
MNZ065>067-074>077-082>085-091>093-250400-
   South Central Minnesota

CITY           SKY/WX    TMP DP  RH WIND       PRES   REMARKS
MANKATO        LGT RAIN  69  66  90 SE14      29.95S
ST JAMES       DRIZZLE   68  66  94 SE3       29.95S
FAIRMONT       CLOUDY    68  66  93 S10       29.96R
GLENCOE        CLOUDY    67  67 100 E12       29.94F
FARIBAULT      MOCLDY    68  64  88 E12G17    29.98F
OWATONNA       CLOUDY    68  63  83 SE10G20   29.98F
WASECA         CLOUDY    68  63  83 SE12G22   29.98S
ALBERT LEA     LGT RAIN  68  66  94 SE16      29.98F
$$
MNZ078>079-086>088-094>096-250400-
   Southeast Minnesota

CITY           SKY/WX    TMP DP  RH WIND       PRES   REMARKS
ROCHESTER      CLOUDY    67  65  93 SE14G23   30.04S
RED WING       CLOUDY    68  63  83 SE14G20   30.01F
DODGE CENTER   CLOUDY    66  63  88 SE16G22   30.01F
WINONA         CLOUDY    68  63  83 SE10      30.05F
AUSTIN         MOCLDY    66  63  88 SE14      30.00F
PRESTON        CLOUDY    65  62  90 SE12      30.05F FOG
$$
ABBREVIATIONS USED IN REMARKS
   TC - TEMPERATURES IN CELSIUS
  WCI - WIND CHILL INDEX
   HX - HEAT INDEX
  VSB - VISIBILITY
$$




USA.gov is the U.S. government's official web portal to all federal, state and local government web resources and services.